Regional Weather Roundup
Issued by NWS

Home | Current Version | Previous Version | Graphics & Text | Print | Product List | Glossary On
Versions: 1 2 3 4 5 6 7 8 9 10 11 12 13 14 15 16 17 18 19 20 21 22 23 24 25 26 27
000
ASUS45 KSLC 310210
RWRUT

UTAH REGIONAL WEATHER ROUNDUP
NATIONAL WEATHER SERVICE SALT LAKE CITY UT
800 PM MDT THU OCT 30 2014

UTZ001>011-023>025-310300-

NORTHERN UTAH

CITY           SKY/WX    TMP DP  RH WIND       PRES   REMARKS
BRIGHAM CITY   MOCLDY    52  37  55 CALM      30.12S
HILL AFB       PTCLDY    52  34  51 S6        30.13F
LOGAN          CLEAR     50  35  56 SE3       30.13F
OGDEN          PTCLDY    54  36  50 S3        30.12S
PROVO AIRPORT  NOT AVBL
SALT LAKE CITY PTCLDY    52  43  71 CALM      30.12F
VERNAL         PTCLDY    47  29  49 W7        30.26S
WENDOVER       MOCLDY    48  27  43 W6        30.13S
HEBER CITY     PTCLDY    52  25  35 CALM      30.20R
WEST JORDAN    CLEAR     54  36  50 SW6       30.14S

$$

UTZ012>022-026-027-310300-

SOUTHERN/CENTRAL UTAH

CITY           SKY/WX    TMP DP  RH WIND       PRES   REMARKS
BLANDING       CLEAR     56  17  21 CALM      30.33S
BRYCE CANYON   PTCLDY    39  15  37 SE8       30.33R WCI  33
CEDAR CITY     MOCLDY    59  15  18 SE8       30.16S
DELTA          MOCLDY    57  20  24 CALM      30.13S
HANKSVILLE       N/A     57  19  23 CALM      30.22R
MILFORD        PTCLDY    54  24  31 CALM      30.14R
MOAB/CYNLANDS  CLEAR     48  18  30 CALM      30.20R
PRICE          PTCLDY    49  19  30 N12       30.27S
ST GEORGE      PTCLDY    70  25  18 CALM      30.03R
KANAB            N/A     61  19  20 N8        30.20S

$$

REGIONAL REPORTS     COLORADO/ARIZONA

CITY           SKY/WX    TMP DP  RH WIND       PRES   REMARKS
CRAIG, CO      PTCLDY    39  29  67 CALM      30.32R
GRAND JUNCTION CLEAR     49  23  36 NE3       30.22R
RIFLE          CLEAR     48  27  44 SE7       30.27R
MONTROSE       CLEAR     48  27  44 SE7       30.30R
CORTEZ         CLEAR     44  25  47 E6        30.27R
PAGE, AZ       PTCLDY    60  26  27 CALM      30.16S
GRAND CANYON   MOCLDY    50  18  28 E3        30.28R
KINGMAN        CLOUDY    66  33  29 SE7       30.06S
FLAGSTAFF      CLOUDY    49  23  36 CALM      30.31R

$$

REGIONAL REPORTS    NEVADA/IDAHO/WYOMING

CITY           SKY/WX    TMP DP  RH WIND       PRES   REMARKS
LAS VEGAS, NV  CLOUDY    78  26  14 S7        29.94S
ELY            PTCLDY    48  16  27 SW9       30.17R
ELKO           MOCLDY    52  21  29 CALM      30.04S
POCATELLO, ID  CLEAR     54  30  40 VRB3      30.12F
BURLEY         CLOUDY    61  26  26 SE5       30.05S
EVANSTON, WY   CLEAR     50  26  39 E10       30.27F
ROCK SPRINGS   CLEAR     49  26  41 SE9       30.31S
KEMMERER       PTCLDY    48  27  43 NE3       30.31S

$$



USA.gov is the U.S. government's official web portal to all federal, state and local government web resources and services.